Tracking 17145 objects as of 29-May-2015
HD Live streaming from Space Station

ABS 3

Track ABS 3 now!
ABS 3 is classified as:


NORAD ID: 24901
Int'l Code: 1997-042A
Perigee: 35,778.2 km
Apogee: 35,808.0 km
Inclination: 3.5 °
Period: 1,436.1 minutes
Semi major axis: 42164 km
RCS: 10 m2 (large)
Launch date: August 19, 1997
Source: People's Republic of China (PRC)

Most powerful telecommunications satellite in service in the Asia-Pacific region; 30 C-band, 24 Ku-band transponders; 190 high fidelity channels and 50,000 simultaneous telephone links.
Your satellite tracking list
Your tracking list is empty





NASA's NSSDC Master Catalog

Two Line Element Set (TLE):
1 24901U 97042A   15149.02249619 -.00000028  00000-0  00000+0 0  9991
2 24901 003.4862 067.9809 0003535 349.5940 193.8096 01.00274224 65054

Source of the keplerian elements: AFSPC

N2YO: 356